Wind_Speed
84 83 82 82 82 84 85 86 86 86 86 84 83 83 83 83 83 84 84 84 83 82 81 80 79 78 77 76 76 76 76 75 75 75 75 75 76 76 77 78 79 80 81 81 81 81 81 80 80 79 78 77 76 75 73 71 70 68 68 67 67 67 68 69 69 69 68 68 68 68 68 67 67 67 68 68 68 69 69 70 71 72 73 74 74 73
84 84 83 82 83 84 85 85 85 85 85 84 83 83 84 84 85 85 85 85 84 84 83 82 80 79 78 77 77 76 76 75 75 75 76 76 76 77 78 78 79 80 81 81 81 81 81 80 80 79 78 77 76 74 73 71 70 69 68 68 67 68 68 68 69 68 68 68 68 68 67 67 67 67 68 68 69 69 70 70 71 72 73 74 74 73
85 84 84 83 83 83 84 84 84 84 84 83 83 83 83 84 85 86 86 86 85 85 84 83 82 80 79 78 78 77 76 76 76 76 76 76 77 77 78 79 80 80 81 82 82 81 81 80 79 78 77 76 75 74 73 72 70 69 68 68 67 67 68 68 68 68 68 68 68 68 67 67 67 67 68 69 69 70 71 71 72 73 74 74 73 72
85 85 84 84 83 83 83 83 82 82 82 81 81 82 82 83 85 86 87 87 87 86 85 84 83 81 80 79 79 78 77 77 76 77 77 77 77 78 79 79 80 81 82 82 82 81 81 79 78 77 77 76 75 74 73 72 71 70 68 68 67 67 67 68 68 68 68 68 68 67 67 66 67 67 68 69 70 71 72 73 73 74 74 73 72 72
86 86 85 84 83 83 83 82 82 81 80 80 80 80 80 81 83 85 86 87 88 87 87 85 84 83 81 81 80 79 78 78 78 78 78 78 78 79 79 79 80 81 82 82 82 81 80 79 78 77 76 75 74 73 73 72 71 70 68 67 67 67 67 68 68 68 67 67 67 67 66 67 67 68 69 70 71 72 72 73 74 74 74 73 72 71
86 86 85 84 83 83 82 82 81 80 79 79 79 78 78 79 80 82 84 86 87 87 87 86 85 83 82 82 81 80 79 79 79 79 79 79 79 79 79 80 80 81 82 82 82 81 80 78 77 76 75 75 74 73 73 72 71 70 68 67 67 67 68 68 68 67 66 66 66 66 67 68 69 69 70 70 71 72 73 74 74 74 73 72 71 71
86 86 85 84 83 83 82 81 80 79 78 78 78 77 77 77 78 79 81 84 85 86 86 86 85 84 83 83 82 81 80 80 79 79 79 80 79 79 79 79 80 81 82 82 82 81 79 77 76 75 75 74 74 73 73 72 71 70 68 68 68 68 68 67 66 66 65 65 65 66 67 68 69 70 71 71 72 73 73 73 74 73 72 71 71 71
86 85 85 84 83 82 82 81 80 79 78 78 77 77 76 76 76 77 78 80 82 83 84 85 84 84 84 83 83 82 81 80 80 80 80 80 80 79 79 79 80 81 82 82 82 81 79 77 75 75 74 74 74 73 73 72 71 70 69 68 68 68 67 66 65 65 65 65 66 67 68 69 70 71 72 72 73 73 73 73 73 72 71 71 71 70
86 85 85 84 83 82 81 81 79 78 77 77 77 77 76 75 75 75 76 77 79 81 82 83 84 84 84 84 84 83 82 81 80 80 80 80 80 79 79 79 80 81 82 82 82 81 79 77 75 74 74 74 73 73 72 72 71 70 69 69 68 67 66 65 65 65 65 66 66 67 68 69 70 72 73 73 73 74 73 73 72 71 71 71 71 71
86 85 85 84 83 82 81 80 79 78 77 77 77 76 75 74 74 74 74 75 77 78 80 81 83 83 84 84 84 83 82 81 80 80 80 79 79 79 79 79 81 82 83 83 82 81 79 77 76 74 73 73 73 73 72 72 71 70 69 68 66 65 65 64 65 65 66 66 67 68 69 70 71 72 73 74 74 74 73 72 72 71 71 71 71 72
86 85 85 84 82 81 80 79 78 78 77 77 76 76 75 74 73 73 74 74 75 76 77 79 81 82 82 83 83 83 82 81 80 80 79 79 79 78 79 80 81 83 83 83 82 81 80 78 76 75 74 73 73 73 72 71 70 68 67 66 65 65 64 65 65 66 66 67 68 69 70 71 73 73 74 74 74 73 72 72 71 71 71 72 72 73
86 85 84 83 82 81 80 79 78 77 77 77 76 76 75 74 74 74 74 74 74 75 76 77 78 79 80 81 81 82 82 81 80 79 79 78 78 78 79 80 82 83 83 83 82 82 81 79 78 76 75 74 73 72 71 70 68 66 65 65 65 65 65 65 66 67 68 69 70 71 72 73 74 74 74 74 73 72 72 71 71 72 72 73 74 74
87 85 84 83 82 80 79 78 78 77 77 77 77 76 76 75 75 75 74 74 74 74 74 75 75 76 77 78 79 80 80 81 80 80 79 79 78 79 79 81 82 83 83 82 82 81 80 79 78 76 75 73 72 71 69 68 66 65 65 66 66 66 66 67 68 69 70 71 72 72 73 74 75 75 74 74 73 72 71 71 72 72 73 74 75 75
87 85 84 83 82 80 79 78 77 77 77 77 77 77 77 77 76 76 75 74 74 73 73 73 74 74 75 75 76 77 78 79 79 79 79 79 79 79 80 81 82 82 81 81 80 79 78 77 76 74 73 71 70 69 68 67 66 66 67 67 68 68 68 69 70 71 72 73 73 74 74 75 75 75 74 73 72 72 71 72 73 73 74 75 75 76
88 86 84 83 82 80 79 78 78 78 78 78 78 78 78 78 77 76 76 75 74 73 72 72 72 73 73 74 74 75 76 77 78 78 79 79 80 80 81 82 82 82 81 79 78 78 76 75 73 72 71 70 69 68 68 68 68 68 68 69 69 70 71 71 72 73 74 74 75 75 75 75 75 74 74 73 72 72 72 73 74 74 75 75 76 76
89 87 85 84 82 81 79 78 78 78 78 79 79 79 79 78 78 77 76 75 74 73 72 72 71 71 72 72 72 73 74 75 76 77 78 79 80 81 82 83 83 82 81 79 78 77 76 75 74 72 71 70 70 70 69 69 69 70 70 71 71 72 73 73 74 75 75 75 75 75 75 75 75 74 74 73 73 73 73 74 75 75 76 76 76 76
90 88 86 85 83 81 80 79 78 78 79 79 79 79 79 79 78 78 77 76 75 74 73 72 71 71 71 71 72 72 73 74 75 75 76 77 79 81 83 84 84 83 81 80 79 78 77 76 75 75 74 73 72 72 71 71 71 71 72 72 73 74 74 75 75 76 76 76 76 76 76 75 75 74 74 74 74 74 74 75 75 76 76 76 76 76
91 89 87 85 83 82 80 79 79 79 79 79 79 80 80 80 79 79 78 77 76 75 74 73 72 71 70 70 71 72 72 72 73 74 74 76 78 80 82 84 84 83 82 80 79 78 78 78 77 77 76 75 75 74 73 73 73 73 73 74 74 75 75 76 76 76 76 76 76 76 76 75 75 75 75 74 74 74 75 75 76 76 76 76 76 76
92 90 88 86 84 82 81 80 79 79 79 79 80 80 81 81 80 80 79 78 77 76 75 73 72 71 70 70 71 72 71 71 71 72 73 74 77 79 81 82 83 82 81 79 79 78 78 78 78 78 77 77 76 75 74 74 74 74 74 74 75 75 75 76 76 77 77 77 77 77 76 76 75 75 75 75 75 75 75 76 76 76 76 76 76 75
93 91 88 86 84 82 81 80 80 80 80 80 80 81 81 81 81 80 80 78 77 76 76 75 74 72 71 71 71 71 70 70 69 70 71 73 75 77 79 81 81 80 79 78 78 77 77 77 77 77 77 77 76 75 75 74 74 74 74 74 75 75 76 76 77 77 78 78 77 77 76 76 76 76 76 76 76 76 76 76 76 76 76 76 75 75
93 91 89 86 84 83 82 81 81 80 81 81 81 82 82 82 82 81 80 79 78 77 77 76 75 74 73 72 72 71 70 69 69 69 71 72 75 77 79 80 80 80 79 78 77 77 77 77 77 77 76 76 76 75 74 74 74 74 74 74 75 75 76 77 78 79 79 79 78 77 77 77 76 77 76 76 76 76 76 76 76 76 76 75 75 75
93 91 89 87 85 84 83 82 82 82 82 82 82 82 82 82 82 82 81 80 79 78 77 77 76 75 74 73 72 72 70 69 69 69 70 72 75 77 80 81 81 80 79 78 77 77 77 77 77 76 76 76 75 75 74 74 74 75 75 75 76 77 78 79 80 80 80 79 79 78 77 77 77 77 77 76 76 76 76 76 76 76 75 75 74 74
93 91 89 87 86 85 84 83 83 83 83 82 82 82 82 83 82 82 81 80 79 78 78 78 77 76 75 74 73 72 71 70 70 70 70 72 75 78 81 82 82 82 80 79 78 77 77 77 77 77 76 76 76 75 75 75 76 76 77 77 78 79 80 81 81 81 81 80 79 78 78 78 77 77 77 77 76 76 76 76 76 75 75 74 74 74
93 91 89 88 87 85 85 84 84 84 83 83 83 83 83 83 83 82 81 80 79 79 78 78 78 77 76 75 74 73 72 71 70 70 71 72 75 79 81 83 83 83 81 80 79 78 78 78 78 78 77 77 77 77 77 77 78 79 79 80 80 81 82 82 83 82 82 81 80 79 78 78 78 77 77 77 76 76 76 76 76 75 74 74 74 74
93 91 90 88 87 86 85 85 85 85 84 84 84 83 83 83 83 82 81 80 79 79 78 78 78 78 77 76 75 74 73 72 71 70 71 72 75 78 81 83 84 84 82 81 79 79 79 79 79 79 79 79 78 79 79 80 81 82 82 83 83 83 84 84 84 83 82 81 80 79 79 78 78 77 77 77 76 76 76 76 75 75 74 74 74 75
93 91 90 88 87 87 86 86 86 85 85 85 84 84 83 83 83 82 81 80 80 79 79 79 79 79 78 78 77 75 74 73 72 71 71 73 75 78 81 82 83 84 83 82 80 80 80 81 81 81 81 81 81 82 83 84 84 85 85 85 85 85 85 85 85 84 82 81 80 79 79 78 78 77 77 76 76 76 76 75 75 74 74 74 75 76
92 91 90 89 88 87 87 87 86 86 85 85 84 84 84 83 83 82 82 81 80 80 80 80 80 80 79 79 78 77 76 74 73 72 72 73 75 77 79 81 82 83 83 82 82 81 82 82 83 83 83 84 84 85 86 87 87 87 87 87 86 86 86 86 85 84 82 81 80 79 78 78 77 77 77 76 76 76 76 75 74 74 75 75 76 77
92 91 90 89 88 88 87 87 87 86 86 85 85 84 84 84 83 82 82 81 80 80 81 81 81 81 80 80 79 78 77 75 74 73 73 74 76 77 79 79 80 81 82 83 83 83 83 84 84 84 85 85 86 87 88 88 88 88 87 87 86 86 86 85 85 83 82 80 79 79 78 78 77 77 76 76 76 76 75 75 75 75 75 76 77 77
91 91 90 90 89 89 88 88 87 87 86 85 85 85 85 84 84 83 82 81 81 81 81 82 82 81 81 81 80 79 78 76 75 74 74 75 77 78 79 78 79 79 81 82 84 84 85 85 85 85 86 86 87 87 88 88 87 87 86 86 85 85 85 84 83 82 81 80 79 78 78 77 77 76 76 76 76 76 75 75 75 75 76 77 78 78
90 90 90 90 90 90 89 89 88 87 86 86 86 86 86 85 84 83 82 82 81 82 82 83 83 82 82 81 81 80 79 77 76 75 75 76 78 79 79 79 79 79 80 82 84 85 86 86 86 86 86 86 86 86 86 86 86 85 85 84 84 84 83 83 82 81 80 79 78 78 77 77 77 76 76 76 76 75 75 75 76 76 77 78 78 79
90 90 91 91 91 91 90 90 89 88 87 87 87 87 87 86 85 84 83 82 82 82 83 83 83 83 82 82 81 81 80 78 77 76 76 77 78 79 80 80 80 80 80 82 83 85 86 86 86 86 86 86 86 86 85 85 84 84 83 83 82 82 82 81 81 80 79 78 78 77 77 77 76 76 76 76 76 75 75 76 76 77 78 79 79 80
90 91 92 92 92 92 91 90 89 88 88 88 88 88 88 87 86 84 83 83 83 83 84 84 84 83 83 82 82 81 80 79 78 77 77 78 79 80 80 80 81 81 81 82 83 85 86 87 87 86 86 86 85 85 84 83 83 82 82 81 81 81 80 80 79 78 78 78 77 77 77 77 76 76 76 76 76 76 76 77 77 78 79 79 80 80
90 92 93 93 93 93 92 91 90 89 89 89 89 89 88 87 86 85 84 84 84 84 84 84 84 84 83 83 82 82 81 80 79 79 78 78 79 79 80 80 81 82 82 83 83 84 85 86 87 86 86 85 85 84 83 82 81 80 80 79 79 79 79 79 78 78 77 77 77 77 77 77 76 76 76 76 76 76 77 78 78 79 79 80 80 81
91 92 93 94 94 94 93 92 91 90 90 90 89 89 89 88 87 86 85 85 85 85 85 85 85 84 84 83 82 82 82 81 80 80 79 79 79 79 79 79 80 81 82 82 83 83 84 85 85 85 84 83 82 81 80 79 79 79 78 78 78 78 78 78 78 77 77 77 77 77 77 77 77 76 76 76 76 77 78 78 79 79 79 80 80 81
92 93 94 94 94 94 93 93 92 91 91 90 90 90 89 89 88 87 86 86 86 85 85 86 85 85 84 83 83 82 82 81 81 81 80 80 80 79 79 79 79 80 80 81 81 81 82 82 82 82 81 80 79 78 77 77 77 77 77 77 77 77 78 78 78 78 78 78 78 78 77 77 77 76 76 77 77 78 78 79 79 79 80 80 81 82
93 93 93 94 94 94 94 93 92 92 91 91 90 90 90 89 89 88 87 87 87 86 86 86 86 86 85 84 83 83 82 82 82 81 81 81 80 80 79 79 79 79 79 79 79 79 79 79 79 78 77 76 75 75 75 75 75 76 76 77 77 77 78 78 78 78 78 78 78 78 77 77 77 77 77 77 77 78 78 79 79 80 80 81 82 83
92 92 93 93 93 94 93 93 93 92 92 92 91 91 90 89 89 88 88 88 88 87 87 87 87 86 86 85 84 83 83 83 82 82 82 82 81 81 80 80 80 79 78 78 78 77 77 76 76 75 74 73 72 73 73 74 75 75 76 77 77 78 78 79 79 79 79 78 78 78 77 77 77 77 77 77 78 78 79 79 79 80 81 82 83 83
90 91 91 92 92 93 93 92 92 92 92 92 92 91 90 90 89 89 89 89 89 89 88 88 87 87 86 85 85 84 84 83 83 83 83 82 82 81 81 80 80 79 78 77 76 75 74 73 72 71 71 71 71 72 72 73 74 75 77 77 78 79 79 79 79 79 79 78 78 78 77 77 77 77 77 78 78 78 79 79 80 81 82 83 84 84
89 89 90 90 91 91 91 91 91 91 91 91 91 91 90 90 90 90 90 90 90 90 89 88 88 87 86 86 85 84 84 83 83 83 83 82 82 81 81 80 80 79 78 76 74 73 71 70 69 69 69 70 71 72 73 74 75 76 77 78 79 79 80 80 79 79 79 78 78 77 77 77 77 77 77 78 78 79 79 80 81 82 83 84 85 85
88 88 89 89 89 89 89 88 88 88 89 89 90 90 90 89 90 90 90 90 90 90 89 88 87 87 86 85 84 84 83 83 82 82 81 81 80 80 80 79 78 77 76 73 71 69 68 67 67 68 69 70 71 72 74 75 76 77 78 79 80 80 80 80 79 79 78 78 77 77 77 77 77 77 78 78 79 79 80 81 82 83 84 85 85 86
87 88 88 88 88 87 87 86 86 86 86 87 87 87 88 88 88 89 89 89 89 89 88 87 86 86 85 84 83 83 82 82 81 80 79 78 78 78 77 77 76 74 72 70 68 66 65 66 67 68 70 71 72 73 75 76 77 78 79 80 80 80 80 79 79 78 78 77 77 77 77 77 78 78 79 79 80 80 81 82 83 84 85 86 87 87
86 86 86 86 86 85 85 85 84 84 84 84 84 85 85 86 87 88 88 88 88 87 87 86 85 84 83 83 82 82 81 80 79 78 77 76 75 75 74 73 72 70 68 66 65 65 65 66 67 69 71 72 74 75 76 77 78 79 80 80 80 80 80 79 78 78 77 77 77 77 77 78 78 79 80 80 81 82 83 84 85 85 86 87 88 89
85 85 85 85 84 84 84 83 83 83 82 82 82 83 84 85 85 86 86 86 86 86 85 85 84 83 82 82 81 81 80 78 77 75 74 73 72 72 71 70 68 66 64 64 64 65 66 68 69 71 73 74 75 76 77 79 79 80 80 80 80 80 79 79 78 77 77 77 77 78 78 79 79 80 81 81 82 83 84 85 86 87 88 89 89 90
84 84 84 84 83 83 82 82 82 81 81 81 81 82 83 83 84 85 85 85 85 85 85 84 83 83 82 82 81 80 78 77 75 73 72 71 70 69 68 66 65 64 63 63 65 67 68 70 72 73 74 75 76 77 78 79 80 80 80 80 80 79 79 78 78 78 78 78 78 79 79 80 81 81 82 83 84 85 86 87 88 89 89 90 91 91
83 83 83 83 82 82 81 81 80 80 80 80 80 81 81 82 83 83 83 84 84 84 84 84 83 83 82 82 81 79 77 75 74 72 71 70 68 67 66 65 64 64 64 65 67 68 70 72 73 74 75 76 77 78 79 80 80 80 80 80 79 79 79 78 78 78 78 79 80 80 81 81 82 82 83 84 85 86 87 88 89 90 91 92 92 92
82 82 82 82 81 81 81 80 80 79 79 79 79 80 80 81 81 81 82 82 82 83 83 83 83 82 82 82 80 78 76 74 72 71 69 68 67 66 65 65 65 65 66 67 69 70 72 73 74 76 76 77 78 78 79 79 80 80 80 80 79 79 79 79 79 79 80 80 81 82 82 83 83 84 85 86 87 88 89 90 91 92 92 93 93 93
81 81 81 81 81 80 80 79 79 78 78 78 78 79 79 79 79 80 80 81 81 81 81 81 81 81 81 80 79 77 74 73 71 70 69 67 67 66 66 66 66 67 68 69 70 72 73 74 75 76 77 78 78 79 80 80 80 80 80 80 80 79 80 80 80 81 81 82 82 83 83 84 84 85 86 88 89 90 91 92 92 93 93 94 93 93
81 81 81 80 80 80 79 79 78 78 78 77 77 77 77 78 78 78 78 79 79 79 79 79 79 78 78 77 76 75 73 72 71 70 69 68 67 67 66 67 68 68 70 71 72 73 74 75 76 77 78 78 79 80 80 80 80 80 80 80 80 80 81 81 82 82 83 83 84 84 84 85 86 87 88 90 91 92 93 93 94 94 94 94 94 93
80 80 80 80 80 79 79 78 78 77 77 76 76 75 76 76 76 76 77 77 77 77 76 76 75 75 74 73 73 72 71 71 71 70 69 68 68 68 68 68 69 70 71 72 74 75 76 76 77 78 78 79 79 80 81 81 81 81 81 81 81 82 82 83 83 83 84 84 85 85 86 87 88 89 90 91 92 94 94 95 95 95 95 94 93 93
79 79 79 79 79 78 77 77 76 75 74 72 72 71 71 72 73 73 74 74 74 74 73 73 72 71 70 70 70 70 70 70 71 71 70 70 69 69 69 70 71 72 73 74 75 76 77 77 78 79 79 79 80 80 81 82 82 82 82 82 83 83 83 84 84 85 85 86 86 87 88 89 90 91 92 93 94 95 95 96 96 95 95 94 93 92
78 78 77 77 76 76 75 74 73 71 69 67 66 66 66 66 67 68 69 70 70 70 70 70 69 68 68 67 68 68 69 70 70 71 71 71 71 71 71 72 73 74 74 76 76 77 78 78 79 80 80 81 81 81 81 82 83 83 83 84 84 84 85 85 86 86 87 88 88 89 90 91 92 93 94 94 95 96 96 96 96 95 94 93 92 92
Wind_Direction
252 252 253 252 252 252 252 253 254 254 255 255 254 252 252 252 253 255 256 257 258 259 260 261 262 262 263 263 264 264 265 266 266 267 267 268 269 270 272 273 274 275 276 278 279 280 280 281 281 282 282 282 283 284 285 286 287 288 289 290 292 292 293 294 295 297 298 300 301 302 303 304 305 306 307 308 308 308 309 310 311 312 313 314 315 315
251 252 252 252 252 252 253 253 254 254 255 256 255 254 252 251 252 253 255 256 257 258 259 260 261 261 262 262 263 263 264 265 265 266 266 267 268 269 271 272 273 275 276 277 278 279 280 280 281 281 281 282 283 284 285 285 287 288 289 290 291 292 292 293 295 296 298 299 300 301 303 304 305 306 306 307 307 308 309 310 311 312 313 314 314 314
251 251 252 252 252 252 253 254 254 255 255 256 256 255 254 253 252 252 254 255 256 257 258 259 260 260 261 261 262 262 263 264 264 265 266 266 267 268 270 271 273 275 276 277 278 278 279 279 280 280 281 281 282 283 284 285 286 288 289 290 290 291 292 293 294 296 297 298 299 301 302 304 304 305 305 306 307 307 309 310 311 312 313 313 313 313
250 251 251 252 252 253 253 254 255 255 256 256 257 257 256 254 253 252 253 254 255 256 257 258 259 260 260 260 261 262 262 263 264 264 265 266 267 268 269 271 273 274 276 276 277 278 278 278 279 279 280 281 282 282 284 285 286 287 289 289 290 290 291 292 293 295 296 298 299 301 302 303 304 304 304 305 306 307 309 310 311 312 313 313 313 312
250 251 251 252 252 253 254 255 255 256 257 257 257 257 257 256 255 254 253 253 254 255 256 257 258 259 259 260 260 261 262 262 263 264 265 265 267 268 269 271 273 274 275 276 276 277 277 278 278 279 279 280 281 282 283 285 286 287 288 289 289 290 291 292 293 294 296 297 299 300 302 302 303 303 304 305 306 308 309 310 311 312 312 312 312 311
250 251 251 252 252 253 254 255 255 256 257 257 258 258 258 257 256 255 254 254 254 254 255 256 257 258 258 259 260 260 261 262 263 263 264 265 266 268 269 271 273 274 275 275 275 276 276 277 277 278 278 279 280 281 283 284 286 287 287 288 289 289 290 291 292 294 295 297 299 300 301 301 302 303 304 305 307 308 309 310 311 311 311 311 310 310
250 250 251 251 252 253 254 254 255 256 257 258 258 259 258 258 257 256 255 255 254 254 255 255 256 257 258 258 259 260 261 261 262 263 264 265 266 268 269 271 272 273 274 274 274 275 276 276 276 277 277 278 279 281 282 284 285 286 287 287 288 289 290 291 292 293 295 296 298 299 300 301 302 303 304 305 307 308 309 310 310 311 310 310 309 309
250 250 250 251 251 252 253 254 255 256 257 258 258 259 259 259 258 257 256 256 255 255 255 255 255 256 257 258 259 259 260 261 262 263 264 265 266 268 269 270 271 272 272 273 273 274 275 275 276 276 277 278 279 281 282 283 284 285 286 287 288 288 289 290 291 293 294 295 297 298 299 301 302 303 304 305 307 308 308 309 309 309 309 308 308 308
249 250 250 250 251 252 253 254 255 256 256 257 258 259 259 259 259 258 257 256 256 255 255 254 254 255 256 257 258 259 260 260 261 262 263 265 266 267 269 269 270 271 271 272 272 273 274 275 275 276 277 278 279 280 281 283 284 285 286 286 287 288 288 289 290 291 293 295 296 298 299 300 302 303 304 305 306 307 308 309 309 308 307 307 307 307
249 249 250 250 251 251 252 253 254 255 256 257 258 258 259 259 259 258 258 257 256 256 255 254 254 254 255 257 258 259 259 260 260 261 263 264 265 267 268 268 269 269 270 270 271 272 273 274 275 276 277 278 279 280 281 282 283 284 285 285 286 286 287 288 289 290 292 294 296 297 299 300 301 303 304 305 306 307 308 308 308 307 306 306 306 306
249 249 249 250 250 251 252 253 254 255 256 256 257 258 258 259 259 258 258 257 256 256 255 255 255 255 255 256 257 258 259 259 260 261 262 263 264 266 267 267 268 268 269 270 271 272 273 273 274 276 277 278 279 280 281 282 282 283 283 284 284 284 285 286 287 289 291 293 295 297 298 300 301 303 304 305 306 307 307 307 306 306 305 305 305 306
249 249 249 250 250 251 251 252 253 254 255 256 257 257 258 258 258 257 257 256 256 256 256 256 256 256 256 256 256 257 258 259 259 260 261 262 263 264 265 266 267 268 268 269 270 271 272 273 274 275 276 277 278 279 280 280 281 281 281 281 281 282 283 284 286 288 290 293 295 296 298 300 301 303 304 305 305 306 306 305 305 304 304 305 305 305
248 249 249 249 250 250 251 251 252 253 254 255 256 256 257 257 257 257 257 257 256 256 256 256 256 257 257 257 257 257 257 258 258 259 260 261 262 263 264 265 266 267 268 269 270 271 272 273 274 275 276 276 277 277 278 278 278 278 278 278 279 280 282 284 286 288 290 292 294 296 298 299 301 302 303 304 304 304 304 304 304 303 304 304 305 305
248 248 249 249 249 250 250 250 251 252 253 254 254 255 256 256 256 256 257 257 257 257 257 257 257 257 257 257 257 257 257 257 258 258 258 259 260 261 262 264 265 266 267 268 270 271 272 273 274 275 275 275 275 275 275 275 275 275 276 277 278 280 282 284 286 288 289 292 294 296 298 299 301 302 302 303 303 303 303 303 303 303 303 304 304 305
248 248 248 248 249 249 249 249 250 251 252 252 253 254 255 255 256 256 257 257 258 258 257 257 257 257 257 257 258 258 258 257 257 257 257 257 258 259 261 262 263 264 265 266 268 269 271 272 273 273 273 273 273 273 273 273 274 274 276 277 278 280 282 284 286 288 289 291 294 295 297 299 300 301 301 301 301 301 301 302 302 302 303 303 304 304
248 247 247 248 248 248 248 249 249 250 251 251 252 253 254 255 255 256 257 257 257 258 258 257 257 257 257 257 258 258 258 257 257 256 256 256 256 257 259 260 261 262 263 264 266 267 268 269 270 271 271 271 272 272 273 273 274 275 276 278 279 281 282 284 286 288 289 291 293 295 297 298 299 299 300 300 300 300 300 301 301 302 302 303 303 304
247 247 247 247 247 248 248 248 248 249 250 251 252 253 253 254 255 255 256 257 257 258 258 258 258 257 257 258 258 258 257 257 257 256 256 255 256 256 257 258 260 261 262 263 264 265 267 268 269 269 270 271 271 272 273 274 275 276 277 278 279 281 282 284 286 287 289 291 293 294 296 297 298 298 299 299 299 299 300 300 301 301 302 302 303 303
247 247 247 247 247 247 247 247 248 248 249 250 251 252 253 253 254 255 255 256 257 257 258 258 258 257 257 257 258 258 258 257 257 256 256 256 256 256 256 258 259 260 261 262 264 265 266 267 268 268 269 270 271 272 273 274 275 276 277 278 279 281 282 284 285 287 289 291 292 294 295 296 297 297 298 298 298 298 299 299 300 301 301 302 302 303
246 247 247 247 247 247 247 247 247 248 248 249 250 251 251 252 253 254 254 255 256 256 257 258 258 257 257 257 257 258 258 257 257 256 256 256 256 256 256 257 258 260 261 262 263 265 265 266 267 268 269 269 270 271 272 273 274 275 276 278 279 281 282 284 285 287 289 291 292 293 294 295 296 296 296 297 297 297 298 299 299 300 300 301 302 302
246 246 247 247 247 247 247 247 247 247 248 248 249 250 251 251 252 253 253 254 255 256 256 257 257 257 257 257 257 258 258 257 256 256 255 255 255 256 256 257 258 259 260 262 263 264 265 265 266 267 268 268 269 270 271 272 273 275 276 277 279 281 282 284 286 287 289 291 292 293 294 294 295 295 295 296 296 297 297 298 299 299 300 300 301 302
245 246 246 247 247 247 247 247 247 247 248 248 248 249 250 251 251 252 253 253 254 255 256 256 257 257 257 257 257 257 257 256 255 255 254 254 254 254 255 256 257 258 259 260 261 262 263 264 265 266 266 267 268 269 270 271 272 274 275 277 279 281 283 284 286 288 289 290 291 292 293 293 294 294 295 295 295 296 297 297 298 299 299 300 300 301
245 245 246 246 246 246 247 247 247 247 247 248 248 249 249 250 251 252 252 253 253 254 255 256 256 257 257 257 257 257 257 256 255 254 253 253 252 253 253 254 255 256 257 258 259 261 262 263 264 265 265 266 267 268 269 271 272 274 276 277 279 282 283 285 286 288 289 290 291 291 292 292 293 293 294 294 295 295 296 297 298 298 299 299 300 301
244 244 245 245 246 246 246 246 247 247 247 248 248 249 249 250 251 251 252 252 253 254 254 255 256 256 257 257 257 257 257 256 255 254 253 252 252 252 253 254 255 256 256 257 258 259 260 262 263 264 265 266 267 268 269 271 272 274 276 278 280 282 284 285 286 287 288 289 290 290 291 292 292 293 293 293 294 295 296 296 297 298 298 298 299 300
242 243 244 244 245 246 246 246 247 247 247 248 248 249 249 250 251 251 252 252 253 254 254 255 256 256 257 257 257 257 257 257 256 255 254 252 252 252 253 254 255 256 257 257 258 258 259 261 262 264 265 266 267 268 270 271 273 275 277 279 280 282 283 285 285 286 287 288 289 289 290 291 291 292 292 293 293 294 295 296 296 297 297 298 299 300
241 242 243 244 244 245 245 246 246 247 247 247 248 248 249 250 251 251 252 252 253 254 254 255 256 256 257 257 258 258 258 257 257 256 255 253 253 252 253 254 255 257 258 259 259 259 259 260 262 263 265 266 268 269 270 272 273 275 277 279 280 282 283 284 285 285 286 287 288 288 289 290 290 291 291 292 293 294 295 295 296 296 296 297 298 300
241 241 242 243 244 244 245 245 246 246 247 247 248 248 249 250 250 251 251 252 253 253 254 255 255 256 257 257 258 258 258 257 257 256 255 254 254 253 253 254 256 257 259 260 260 260 260 261 262 263 265 266 268 269 271 272 274 275 277 279 280 281 282 283 283 284 285 286 287 287 288 289 289 290 291 291 292 293 294 294 295 295 296 297 298 300
240 241 241 242 243 243 244 245 245 246 247 247 248 248 249 249 250 250 251 251 252 253 254 254 255 256 256 257 257 258 258 258 257 257 256 255 255 255 255 255 256 257 258 260 260 261 261 261 262 264 265 267 268 269 271 272 274 275 277 278 279 280 281 282 282 283 284 285 286 286 287 288 288 289 290 291 292 293 293 293 294 294 295 296 298 299
240 240 241 241 242 242 243 244 245 245 246 247 247 248 248 249 249 249 250 251 252 252 253 254 254 255 256 257 257 257 258 258 257 257 257 256 256 256 257 257 257 257 258 259 260 261 261 262 263 264 266 267 268 269 271 272 274 275 276 278 279 279 280 280 281 282 283 284 285 285 286 287 288 288 289 290 291 292 292 293 293 294 295 296 298 299
240 240 240 240 241 242 242 243 244 245 245 246 247 248 248 248 249 249 250 250 251 251 252 253 254 254 255 256 257 257 258 258 258 258 258 257 257 258 258 259 259 258 258 259 259 260 261 262 263 264 266 267 268 269 271 272 273 275 276 277 278 278 279 279 280 281 282 283 284 284 285 286 287 288 289 290 290 291 291 292 292 293 294 296 297 299
240 239 239 240 240 241 241 242 243 244 245 246 246 247 248 248 248 249 249 250 250 251 251 252 253 254 255 256 256 257 258 258 258 258 258 258 258 258 259 259 259 259 259 259 259 260 261 262 263 264 266 267 268 269 271 272 273 275 276 276 277 277 278 278 279 280 281 282 283 284 284 285 286 287 288 289 290 290 290 291 292 293 294 296 297 299
239 239 239 239 239 240 241 241 242 243 244 245 246 247 247 248 248 249 249 249 250 250 251 252 252 253 254 255 256 257 257 258 258 258 258 258 258 259 259 260 260 260 260 260 260 261 262 263 263 265 266 267 268 270 271 272 273 274 275 275 276 276 277 278 279 280 280 281 282 283 284 285 286 287 288 288 289 289 289 290 291 293 294 296 297 299
239 238 238 239 239 239 240 241 241 242 243 244 245 246 247 248 248 248 249 249 249 250 251 251 252 253 253 254 255 256 257 257 258 258 258 258 258 259 259 260 260 261 261 261 261 262 263 263 264 265 266 268 269 270 271 272 273 274 274 274 275 275 276 277 278 279 280 280 281 282 283 284 285 286 287 287 288 288 289 290 291 293 294 296 298 299
238 238 238 238 238 239 239 240 241 242 243 244 245 246 247 247 248 248 248 249 249 250 250 251 252 252 253 253 254 255 256 257 258 258 258 259 259 259 260 260 261 261 262 262 262 263 263 264 265 266 267 268 269 270 271 272 272 273 273 274 274 275 276 276 277 278 279 280 281 282 283 284 285 286 286 286 287 287 288 290 291 293 295 296 298 300
238 238 238 238 238 238 239 239 240 241 242 243 244 245 246 247 248 248 249 249 249 250 251 251 252 252 252 253 254 254 256 256 257 258 258 259 259 260 260 261 261 261 262 262 263 263 264 265 266 267 268 269 269 270 271 271 272 272 272 273 273 274 275 276 277 277 278 279 280 281 282 283 284 285 285 285 286 287 288 290 292 293 295 297 299 300
237 237 238 238 238 238 238 239 239 240 241 242 244 245 246 247 248 248 249 249 250 250 251 252 252 252 253 253 253 254 255 256 257 257 258 259 260 260 261 261 261 262 262 263 263 264 264 265 266 267 268 269 269 270 270 270 271 271 272 272 273 274 274 275 276 277 278 279 280 281 282 283 283 284 284 285 286 287 289 291 292 294 296 297 299 300
238 238 238 238 238 238 239 239 239 240 241 242 243 244 245 246 248 248 249 249 250 250 251 252 252 253 253 253 253 253 254 255 256 257 258 258 259 260 261 261 262 262 263 263 264 264 265 265 266 267 267 268 268 269 269 269 270 271 271 272 273 273 274 275 276 277 278 279 280 281 282 282 283 283 284 285 286 288 290 291 293 295 296 298 299 301
239 239 239 239 239 239 239 239 239 240 240 241 242 243 245 246 247 248 249 249 250 250 251 251 252 253 253 254 254 254 254 255 255 256 257 258 259 260 260 261 262 262 263 263 264 265 265 265 266 266 267 267 267 268 268 269 270 270 271 272 272 273 274 275 276 277 278 279 280 280 281 281 282 283 284 285 287 289 290 292 294 295 297 298 299 301
241 241 240 240 241 240 240 240 240 240 240 241 242 243 244 245 246 247 248 249 250 250 251 251 252 253 253 254 254 254 255 255 255 255 256 257 258 259 260 261 262 263 263 264 264 265 265 265 265 266 266 266 266 267 268 269 269 270 271 272 272 273 274 275 276 277 278 279 279 280 280 281 282 283 284 286 287 289 291 292 294 295 297 298 299 300
241 241 241 242 242 242 242 242 241 241 241 242 242 243 244 245 246 247 248 249 249 250 250 251 252 252 253 254 254 255 255 255 255 255 256 257 258 259 260 261 262 263 263 264 264 264 264 264 264 264 265 265 266 267 268 268 269 270 271 272 272 273 274 275 276 277 278 278 279 279 280 281 282 283 285 287 288 290 291 293 294 296 297 298 299 300
241 241 242 242 242 243 243 243 243 242 243 243 243 244 244 245 246 247 248 248 249 250 250 251 252 252 253 253 254 254 255 255 255 256 256 257 258 259 260 261 262 263 263 264 264 264 264 264 264 264 264 265 266 267 268 268 269 270 271 272 272 273 274 275 276 276 277 278 278 279 280 281 282 284 285 287 289 290 291 293 294 296 297 298 299 300
242 242 242 242 243 243 243 243 243 243 243 243 244 244 244 245 246 247 247 248 249 250 250 251 251 252 253 253 253 254 254 255 255 256 256 257 258 259 260 261 262 262 263 264 264 264 264 264 264 264 265 265 266 267 268 268 269 270 270 271 272 273 274 274 275 276 276 277 278 279 280 281 283 284 286 287 289 290 292 293 294 295 296 297 298 300
242 242 243 243 243 243 243 243 243 243 243 243 244 244 244 245 245 246 247 248 248 249 250 250 251 251 252 252 253 253 254 254 255 256 257 257 258 259 260 261 261 262 263 263 264 264 264 264 264 264 265 265 266 267 267 268 268 269 270 270 271 272 273 274 274 275 276 277 277 279 280 282 283 285 286 288 289 290 291 293 294 295 296 297 298 299
242 243 243 243 243 243 243 243 243 243 243 243 244 244 244 244 245 246 246 247 248 248 249 249 250 250 251 251 252 253 253 254 255 256 256 257 258 259 259 260 261 261 262 262 263 263 263 263 263 263 264 265 265 266 267 267 268 268 269 270 270 271 272 273 274 274 275 276 278 279 281 282 283 285 286 288 289 290 291 292 294 294 296 297 297 298
242 243 243 243 244 244 243 243 243 243 244 243 243 244 244 244 245 245 246 247 247 248 248 249 249 250 250 251 252 252 253 254 255 255 256 257 257 258 258 259 259 260 260 260 260 261 261 261 261 262 263 264 264 265 265 266 267 267 268 269 270 271 271 272 273 275 276 277 278 279 281 282 284 285 286 288 289 290 291 292 293 294 295 296 297 298
242 243 243 243 243 243 243 243 243 243 243 243 243 243 244 244 245 245 246 247 247 248 248 249 249 249 250 251 251 252 253 254 255 255 255 256 256 256 257 257 257 258 258 258 258 259 259 260 260 261 262 263 263 264 264 265 266 267 267 268 269 270 271 272 273 275 276 277 279 280 281 283 284 285 286 288 289 290 291 292 293 294 294 295 296 297
242 242 243 243 243 243 243 243 243 243 243 243 243 243 244 244 245 245 246 247 247 248 248 249 249 249 250 251 251 252 253 254 254 254 254 255 255 255 255 255 256 256 256 256 257 257 258 259 259 260 261 262 262 263 263 264 265 266 267 268 269 270 271 273 274 275 276 278 279 280 282 283 284 285 286 288 289 289 290 291 292 293 294 295 296 297
242 242 243 243 243 243 243 243 243 243 243 243 243 243 244 244 245 246 246 247 247 248 249 249 250 250 251 251 252 252 253 253 253 253 253 253 253 254 254 254 254 254 255 255 256 256 257 258 259 259 260 261 262 262 263 264 265 266 267 268 270 271 272 273 274 275 277 278 279 281 282 283 284 285 286 287 288 289 290 291 292 293 294 295 296 296
242 242 242 243 243 243 243 243 243 243 243 243 244 244 244 245 245 245 246 247 247 248 249 250 250 251 251 252 252 252 252 252 251 251 251 251 252 252 253 253 253 254 254 255 255 256 257 257 258 259 260 260 261 262 263 264 265 266 268 269 270 271 273 274 275 276 277 278 279 281 282 283 284 285 286 287 288 289 289 290 291 292 293 294 295 296
242 242 242 243 243 243 243 243 243 243 243 243 244 244 245 245 245 245 246 246 247 248 248 249 250 251 251 252 252 252 251 251 250 250 250 250 250 251 252 252 253 253 254 254 255 256 256 257 258 259 259 260 261 262 263 265 266 267 268 269 271 272 273 274 275 276 277 278 279 280 282 283 284 285 286 287 288 288 289 290 291 292 293 294 295 296
241 241 242 242 242 242 242 242 242 243 243 243 244 244 245 246 246 246 246 247 247 247 248 249 249 250 251 251 251 251 251 250 250 250 249 249 250 250 251 252 253 253 254 255 255 256 257 257 258 259 259 260 261 262 264 265 266 267 269 270 271 272 273 274 275 276 277 278 279 280 281 282 283 284 285 286 287 288 289 290 291 292 293 294 295 296
241 241 241 241 241 241 241 241 241 241 241 241 242 243 244 246 247 247 248 248 248 248 248 249 249 250 250 251 251 251 251 250 250 250 250 250 250 250 251 252 252 253 254 255 255 256 257 257 258 259 260 260 261 262 264 265 267 268 269 270 271 272 273 274 275 276 277 278 279 280 281 282 283 284 285 286 287 288 289 290 291 292 293 294 295 295
Height
10620 10620 10622 10624 10627 10627 10625 10627 10630 10632 10633 10635 10638 10640 10642 10643 10645 10646 10647 10648 10650 10652 10653 10655 10657 10660 10661 10662 10662 10662 10662 10662 10662 10662 10662 10662 10661 10660 10660 10659 10658 10657 10655 10653 10653 10653 10653 10653 10653 10653 10653 10653 10653 10653 10653 10653 10653 10653 10653 10652 10652 10650 10649 10648 10647 10645 10645 10643 10643 10642 10640 10638 10637 10636 10635 10634 10633 10631 10630 10628 10627 10625 10623 10621 10619 10617
10615 10615 10617 10618 10620 10620 10619 10622 10625 10627 10628 10630 10632 10634 10637 10638 10640 10641 10642 10643 10645 10647 10648 10650 10652 10655 10656 10657 10657 10658 10657 10657 10658 10658 10658 10657 10657 10656 10655 10655 10653 10652 10650 10649 10649 10649 10649 10648 10649 10649 10649 10649 10649 10649 10649 10649 10649 10650 10649 10649 10648 10647 10646 10645 10643 10642 10641 10640 10639 10638 10637 10635 10634 10633 10632 10630 10629 10628 10627 10625 10624 10622 10620 10618 10616 10614
10609 10610 10611 10613 10615 10616 10615 10617 10620 10622 10623 10625 10627 10629 10632 10633 10635 10636 10637 10639 10640 10642 10643 10645 10647 10649 10650 10652 10652 10653 10653 10653 10653 10653 10653 10652 10652 10652 10651 10650 10649 10648 10646 10645 10644 10644 10644 10645 10645 10645 10645 10645 10645 10645 10645 10645 10645 10646 10645 10645 10644 10643 10642 10641 10640 10639 10637 10637 10635 10634 10633 10632 10631 10630 10628 10627 10625 10624 10623 10622 10620 10619 10617 10615 10613 10611
10603 10604 10605 10608 10610 10611 10611 10613 10615 10618 10620 10621 10623 10625 10627 10628 10630 10631 10632 10634 10635 10637 10638 10640 10642 10643 10645 10646 10647 10647 10648 10648 10648 10648 10648 10647 10647 10647 10647 10646 10645 10643 10642 10640 10640 10640 10640 10640 10641 10641 10641 10641 10641 10641 10641 10642 10642 10642 10642 10642 10640 10640 10638 10637 10637 10635 10634 10633 10632 10630 10629 10628 10628 10627 10625 10623 10622 10620 10619 10618 10616 10615 10613 10612 10610 10608
10597 10598 10599 10603 10605 10606 10607 10609 10611 10613 10615 10617 10618 10620 10622 10623 10625 10626 10628 10629 10630 10631 10632 10634 10637 10638 10640 10640 10642 10642 10643 10643 10643 10643 10643 10642 10642 10642 10642 10642 10640 10639 10637 10635 10635 10635 10635 10636 10637 10637 10637 10637 10637 10637 10637 10638 10638 10638 10638 10637 10637 10635 10635 10633 10633 10632 10630 10629 10628 10627 10625 10625 10624 10623 10622 10620 10619 10617 10615 10613 10612 10611 10609 10608 10607 10605
10591 10592 10594 10597 10598 10600 10603 10605 10607 10608 10610 10612 10613 10614 10617 10618 10620 10621 10622 10623 10625 10626 10627 10629 10631 10633 10634 10635 10636 10637 10638 10638 10638 10638 10638 10637 10638 10638 10638 10637 10637 10634 10632 10630 10630 10630 10630 10632 10633 10633 10633 10633 10633 10633 10633 10633 10634 10634 10633 10633 10632 10632 10630 10630 10628 10628 10627 10625 10624 10623 10622 10620 10620 10618 10618 10617 10615 10614 10612 10610 10609 10607 10605 10604 10603 10601
10585 10587 10589 10591 10593 10595 10599 10601 10602 10603 10605 10606 10607 10609 10611 10613 10615 10616 10617 10618 10620 10621 10622 10623 10625 10627 10628 10630 10630 10632 10633 10633 10633 10633 10633 10633 10633 10633 10633 10633 10632 10630 10627 10625 10625 10625 10626 10628 10629 10630 10630 10630 10630 10630 10630 10630 10630 10630 10630 10629 10628 10628 10627 10626 10625 10624 10623 10622 10621 10620 10618 10617 10615 10614 10613 10613 10612 10610 10609 10608 10606 10604 10603 10601 10599 10598
10580 10581 10583 10586 10588 10590 10593 10595 10597 10599 10600 10601 10602 10603 10605 10607 10609 10611 10612 10613 10615 10616 10617 10618 10620 10621 10622 10623 10625 10626 10627 10628 10628 10628 10628 10628 10628 10628 10629 10628 10627 10624 10622 10620 10620 10620 10622 10624 10625 10626 10627 10627 10626 10626 10626 10626 10626 10625 10625 10625 10624 10623 10623 10622 10621 10620 10619 10618 10617 10616 10615 10613 10612 10610 10609 10608 10608 10607 10605 10605 10603 10602 10600 10598 10597 10595
10573 10575 10578 10581 10583 10586 10588 10590 10592 10594 10596 10597 10597 10598 10600 10602 10604 10605 10607 10608 10609 10610 10611 10612 10613 10615 10617 10618 10619 10620 10622 10623 10623 10623 10623 10623 10623 10624 10625 10623 10622 10618 10617 10615 10615 10616 10618 10620 10622 10622 10623 10623 10623 10622 10622 10622 10622 10622 10621 10621 10620 10620 10618 10618 10617 10616 10615 10614 10613 10612 10611 10610 10608 10607 10605 10604 10603 10602 10602 10600 10599 10598 10597 10595 10593 10592
10568 10570 10572 10575 10578 10581 10583 10584 10587 10589 10592 10592 10592 10593 10595 10597 10598 10600 10602 10602 10603 10604 10605 10606 10607 10609 10610 10612 10613 10614 10616 10617 10618 10618 10618 10618 10619 10620 10620 10618 10616 10613 10611 10610 10611 10612 10614 10616 10617 10618 10619 10619 10619 10618 10618 10618 10618 10617 10617 10616 10616 10615 10615 10613 10613 10612 10611 10610 10609 10608 10607 10605 10604 10603 10602 10600 10599 10598 10597 10596 10595 10593 10592 10590 10590 10588
10562 10565 10568 10570 10573 10576 10578 10580 10582 10584 10586 10587 10588 10588 10590 10592 10593 10594 10595 10595 10597 10598 10599 10600 10601 10603 10605 10607 10608 10609 10610 10611 10612 10613 10614 10614 10615 10615 10615 10613 10610 10607 10606 10606 10607 10608 10610 10611 10613 10614 10615 10615 10615 10615 10614 10614 10613 10613 10612 10612 10612 10611 10610 10610 10608 10608 10607 10606 10605 10603 10602 10601 10600 10599 10598 10597 10596 10595 10593 10592 10590 10588 10587 10586 10585 10583
10557 10560 10563 10565 10568 10572 10573 10575 10577 10579 10581 10582 10582 10583 10585 10587 10587 10588 10588 10588 10590 10592 10593 10594 10595 10597 10599 10600 10602 10603 10605 10606 10607 10608 10609 10610 10611 10611 10610 10607 10604 10602 10601 10602 10602 10603 10605 10608 10610 10610 10610 10610 10610 10610 10610 10610 10609 10608 10608 10607 10607 10607 10606 10605 10605 10603 10602 10602 10600 10599 10598 10597 10596 10595 10594 10593 10592 10591 10590 10588 10587 10585 10583 10582 10581 10579
10552 10556 10559 10560 10563 10566 10568 10570 10572 10574 10575 10576 10577 10578 10578 10580 10581 10581 10582 10582 10584 10586 10587 10588 10590 10592 10594 10595 10597 10598 10600 10600 10602 10603 10604 10605 10606 10606 10605 10601 10598 10597 10597 10597 10598 10599 10601 10604 10605 10605 10605 10605 10605 10605 10605 10605 10605 10604 10603 10603 10602 10602 10602 10601 10600 10599 10598 10597 10596 10595 10594 10593 10592 10591 10590 10590 10588 10588 10586 10585 10583 10582 10580 10578 10577 10575
10547 10551 10554 10556 10558 10561 10564 10566 10567 10568 10569 10570 10570 10571 10572 10573 10574 10575 10576 10577 10579 10581 10583 10583 10585 10587 10588 10590 10591 10593 10594 10595 10596 10598 10599 10600 10600 10601 10600 10595 10592 10592 10593 10594 10594 10595 10597 10600 10600 10600 10600 10600 10600 10600 10600 10600 10600 10599 10598 10598 10597 10597 10597 10597 10596 10595 10594 10593 10592 10591 10590 10589 10588 10588 10587 10586 10585 10584 10583 10581 10580 10578 10577 10575 10573 10572
10541 10545 10548 10550 10553 10556 10559 10560 10562 10563 10563 10564 10565 10565 10566 10567 10568 10570 10571 10572 10574 10576 10578 10578 10579 10581 10583 10584 10586 10588 10589 10589 10590 10592 10593 10594 10595 10596 10594 10590 10587 10587 10588 10590 10590 10591 10593 10595 10595 10595 10595 10595 10595 10595 10595 10595 10595 10594 10593 10593 10593 10593 10592 10592 10592 10591 10590 10589 10588 10587 10587 10585 10585 10584 10583 10583 10582 10580 10579 10578 10576 10575 10573 10572 10570 10568
10535 10538 10542 10543 10547 10550 10553 10555 10556 10557 10558 10558 10559 10559 10560 10562 10563 10564 10565 10567 10568 10570 10572 10573 10574 10575 10577 10578 10581 10583 10583 10583 10584 10585 10587 10588 10589 10590 10588 10584 10582 10582 10584 10585 10586 10587 10588 10590 10590 10590 10590 10590 10590 10590 10590 10590 10590 10590 10590 10589 10588 10588 10588 10588 10587 10587 10585 10585 10584 10583 10583 10582 10581 10580 10580 10579 10578 10577 10575 10574 10573 10571 10570 10568 10567 10565
10528 10533 10535 10538 10542 10544 10546 10549 10551 10552 10552 10553 10553 10553 10555 10555 10557 10558 10560 10561 10563 10565 10567 10567 10569 10570 10571 10573 10575 10577 10578 10578 10578 10578 10581 10582 10582 10582 10581 10578 10577 10577 10578 10580 10582 10583 10584 10585 10585 10585 10586 10586 10586 10587 10587 10587 10587 10586 10585 10585 10584 10584 10583 10583 10583 10582 10582 10581 10580 10580 10579 10578 10577 10577 10576 10575 10574 10573 10572 10570 10569 10568 10567 10565 10563 10562
10522 10525 10529 10533 10536 10538 10540 10543 10545 10545 10547 10547 10548 10548 10549 10550 10551 10552 10554 10555 10557 10559 10560 10562 10563 10565 10566 10568 10568 10570 10572 10573 10573 10573 10576 10577 10576 10575 10574 10572 10572 10572 10573 10575 10577 10578 10580 10580 10581 10582 10582 10582 10582 10583 10583 10583 10582 10582 10582 10581 10580 10580 10579 10578 10578 10578 10577 10577 10576 10575 10575 10574 10573 10573 10572 10571 10570 10569 10568 10567 10565 10564 10563 10562 10560 10558
10514 10518 10523 10527 10529 10532 10535 10537 10538 10540 10541 10542 10542 10542 10543 10543 10545 10547 10548 10550 10552 10554 10555 10557 10558 10559 10561 10562 10562 10563 10567 10568 10568 10569 10570 10570 10569 10568 10568 10567 10567 10567 10569 10571 10572 10574 10575 10576 10577 10577 10577 10577 10578 10578 10578 10578 10578 10578 10577 10577 10576 10575 10575 10574 10573 10573 10573 10572 10572 10572 10571 10570 10570 10569 10568 10567 10566 10565 10564 10563 10562 10560 10559 10558 10556 10555
10508 10513 10517 10519 10523 10527 10529 10530 10532 10533 10535 10535 10535 10536 10536 10537 10539 10541 10543 10545 10547 10548 10550 10551 10552 10553 10555 10556 10557 10558 10560 10563 10565 10565 10564 10564 10563 10562 10562 10562 10562 10563 10565 10566 10567 10569 10571 10572 10572 10572 10573 10573 10573 10574 10574 10574 10573 10573 10573 10572 10572 10571 10570 10570 10569 10568 10568 10568 10568 10567 10567 10566 10565 10565 10564 10563 10562 10561 10560 10559 10558 10557 10555 10554 10553 10551
10502 10506 10510 10514 10518 10520 10522 10523 10525 10527 10527 10528 10528 10529 10530 10531 10533 10535 10537 10540 10542 10543 10544 10546 10546 10547 10549 10550 10551 10552 10554 10558 10559 10558 10558 10558 10557 10556 10555 10556 10557 10557 10559 10560 10562 10564 10566 10567 10567 10568 10568 10568 10568 10569 10570 10569 10569 10568 10568 10568 10567 10567 10566 10565 10565 10564 10564 10563 10563 10563 10562 10562 10561 10560 10560 10558 10558 10557 10556 10555 10554 10553 10552 10550 10548 10547
10497 10500 10505 10508 10512 10513 10515 10517 10518 10519 10520 10521 10522 10523 10523 10525 10527 10529 10531 10533 10536 10537 10538 10539 10540 10541 10543 10545 10545 10547 10549 10552 10552 10551 10552 10553 10551 10550 10550 10550 10551 10552 10553 10555 10557 10559 10560 10561 10562 10563 10563 10563 10563 10564 10565 10565 10564 10563 10563 10563 10563 10562 10562 10560 10560 10560 10559 10559 10559 10558 10558 10557 10557 10556 10555 10554 10553 10553 10552 10551 10550 10548 10548 10546 10545 10543
10492 10496 10499 10502 10504 10506 10508 10510 10511 10512 10513 10514 10515 10516 10517 10519 10521 10522 10525 10528 10530 10531 10532 10533 10535 10536 10538 10539 10540 10542 10545 10547 10547 10546 10547 10547 10545 10543 10544 10545 10545 10546 10547 10549 10552 10553 10555 10556 10557 10558 10558 10558 10559 10560 10560 10560 10559 10559 10558 10558 10558 10558 10557 10555 10555 10555 10555 10555 10555 10554 10554 10553 10552 10552 10550 10550 10549 10548 10547 10547 10545 10545 10543 10542 10541 10539
10486 10490 10493 10495 10498 10499 10501 10503 10503 10505 10506 10508 10509 10510 10512 10513 10515 10517 10519 10522 10524 10526 10527 10528 10530 10531 10532 10533 10535 10537 10540 10541 10542 10542 10542 10541 10540 10538 10538 10539 10540 10540 10542 10544 10547 10548 10550 10550 10552 10553 10554 10555 10555 10555 10555 10555 10555 10554 10554 10554 10553 10553 10552 10551 10550 10550 10550 10550 10550 10550 10549 10548 10548 10547 10546 10545 10545 10543 10543 10542 10541 10540 10539 10538 10537 10535
10480 10483 10487 10490 10492 10493 10494 10495 10497 10498 10499 10501 10502 10504 10505 10508 10510 10512 10514 10517 10518 10520 10522 10523 10524 10524 10525 10527 10530 10533 10534 10536 10537 10537 10537 10535 10535 10534 10533 10534 10535 10536 10537 10539 10542 10544 10545 10545 10547 10548 10550 10551 10551 10551 10550 10550 10550 10550 10550 10549 10548 10548 10547 10546 10545 10545 10545 10546 10546 10545 10545 10544 10543 10542 10542 10541 10540 10539 10538 10537 10537 10535 10534 10533 10532 10530
10475 10478 10481 10483 10485 10487 10488 10488 10490 10491 10492 10494 10496 10498 10500 10502 10503 10505 10508 10510 10513 10515 10516 10517 10517 10518 10519 10522 10525 10527 10528 10530 10532 10532 10531 10531 10530 10529 10528 10529 10531 10532 10532 10535 10538 10540 10540 10540 10542 10543 10545 10546 10547 10546 10545 10545 10545 10545 10545 10544 10543 10542 10542 10540 10540 10540 10541 10541 10541 10540 10540 10539 10538 10538 10537 10536 10535 10535 10533 10533 10532 10531 10530 10528 10527 10526
10468 10472 10475 10478 10480 10480 10481 10482 10483 10485 10486 10488 10490 10492 10494 10496 10498 10500 10502 10504 10507 10508 10510 10510 10510 10512 10514 10518 10520 10520 10522 10524 10525 10525 10526 10526 10525 10524 10523 10525 10527 10528 10529 10530 10532 10533 10535 10536 10537 10538 10540 10541 10542 10542 10540 10540 10540 10540 10540 10539 10538 10537 10536 10535 10535 10535 10536 10536 10536 10536 10535 10535 10534 10533 10532 10532 10531 10530 10529 10528 10527 10526 10525 10524 10523 10522
10463 10466 10469 10472 10473 10474 10475 10475 10477 10478 10480 10482 10484 10486 10488 10490 10492 10493 10495 10498 10501 10503 10503 10503 10505 10507 10510 10512 10512 10513 10516 10518 10518 10520 10521 10522 10520 10518 10517 10520 10522 10523 10525 10525 10527 10528 10530 10531 10532 10533 10535 10536 10536 10537 10536 10535 10535 10535 10535 10533 10533 10532 10530 10530 10530 10530 10531 10531 10531 10531 10530 10530 10529 10528 10527 10527 10526 10525 10524 10523 10522 10522 10520 10519 10518 10517
10457 10460 10463 10465 10467 10468 10468 10470 10471 10472 10475 10477 10478 10480 10482 10483 10486 10488 10490 10493 10495 10497 10497 10497 10500 10502 10503 10504 10506 10508 10511 10512 10512 10514 10516 10517 10515 10512 10513 10515 10517 10518 10519 10520 10521 10523 10525 10526 10527 10529 10530 10530 10531 10531 10531 10530 10530 10530 10529 10528 10527 10526 10525 10525 10525 10525 10526 10527 10526 10526 10525 10524 10523 10523 10522 10522 10521 10520 10520 10518 10518 10517 10515 10514 10513 10512
10451 10455 10458 10460 10461 10462 10463 10464 10465 10467 10469 10471 10472 10473 10475 10478 10480 10482 10485 10487 10490 10491 10490 10492 10494 10496 10498 10500 10502 10505 10505 10505 10507 10510 10511 10511 10508 10507 10508 10510 10511 10512 10514 10515 10516 10517 10518 10520 10522 10524 10525 10525 10525 10525 10525 10525 10525 10524 10523 10522 10522 10520 10520 10520 10520 10521 10521 10521 10521 10520 10520 10519 10518 10518 10517 10517 10516 10515 10515 10513 10513 10512 10510 10509 10508 10507
10444 10448 10450 10452 10454 10456 10458 10459 10461 10463 10464 10465 10467 10468 10469 10472 10474 10477 10479 10482 10483 10484 10485 10486 10488 10490 10492 10494 10496 10497 10497 10499 10502 10504 10505 10504 10502 10501 10503 10505 10505 10506 10508 10510 10511 10512 10512 10513 10516 10518 10519 10519 10519 10519 10519 10519 10518 10518 10517 10517 10516 10515 10515 10515 10515 10516 10516 10516 10516 10515 10515 10514 10513 10513 10512 10512 10511 10510 10510 10508 10508 10507 10505 10505 10503 10502
10435 10438 10441 10444 10447 10450 10452 10454 10456 10458 10459 10460 10461 10462 10463 10466 10468 10471 10473 10475 10477 10478 10479 10480 10482 10484 10486 10488 10488 10489 10490 10493 10495 10497 10498 10498 10496 10496 10498 10500 10500 10500 10503 10505 10506 10507 10507 10508 10509 10511 10512 10513 10513 10513 10513 10513 10512 10512 10511 10510 10510 10510 10510 10510 10510 10511 10511 10511 10510 10510 10509 10509 10508 10508 10507 10507 10506 10505 10504 10503 10502 10502 10500 10499 10498 10497
10428 10431 10434 10437 10440 10443 10445 10448 10450 10451 10452 10453 10455 10457 10458 10460 10463 10465 10468 10469 10470 10472 10473 10474 10476 10478 10480 10482 10483 10485 10485 10487 10489 10490 10492 10492 10492 10491 10493 10495 10496 10496 10497 10499 10501 10502 10502 10503 10503 10504 10505 10506 10507 10507 10507 10507 10506 10505 10505 10505 10504 10504 10504 10505 10505 10506 10505 10505 10505 10505 10504 10504 10503 10503 10502 10502 10501 10500 10499 10498 10497 10496 10495 10494 10493 10492
10421 10423 10427 10430 10433 10436 10438 10441 10443 10445 10446 10448 10450 10452 10453 10455 10458 10460 10462 10463 10464 10465 10467 10468 10470 10472 10473 10476 10478 10480 10481 10482 10483 10485 10487 10487 10487 10487 10488 10490 10491 10491 10493 10494 10495 10496 10497 10497 10498 10498 10498 10499 10500 10500 10500 10500 10499 10499 10499 10499 10499 10498 10499 10500 10500 10500 10500 10500 10500 10499 10499 10498 10498 10498 10497 10497 10496 10495 10494 10493 10492 10491 10490 10489 10488 10487
10413 10417 10419 10422 10425 10428 10432 10435 10438 10440 10441 10443 10445 10447 10448 10450 10453 10455 10456 10458 10458 10460 10460 10462 10463 10465 10468 10470 10472 10474 10475 10476 10478 10479 10481 10482 10482 10482 10483 10484 10485 10486 10488 10488 10489 10490 10492 10492 10492 10493 10493 10493 10493 10493 10494 10493 10493 10493 10493 10493 10493 10493 10493 10494 10495 10495 10495 10495 10494 10494 10493 10493 10493 10493 10492 10491 10490 10490 10488 10488 10487 10485 10485 10483 10483 10482
10407 10410 10412 10415 10418 10422 10425 10428 10432 10434 10437 10438 10440 10442 10444 10445 10447 10449 10451 10452 10453 10453 10455 10456 10458 10460 10462 10464 10467 10468 10470 10471 10473 10475 10477 10477 10477 10477 10478 10478 10479 10481 10483 10482 10483 10485 10485 10485 10485 10487 10488 10488 10487 10487 10487 10487 10488 10488 10487 10488 10488 10488 10488 10488 10489 10489 10489 10489 10488 10488 10488 10488 10488 10487 10487 10486 10485 10484 10483 10482 10481 10480 10479 10478 10477 10476
10400 10403 10406 10409 10412 10415 10419 10423 10426 10428 10431 10433 10435 10437 10439 10440 10442 10443 10445 10446 10447 10447 10448 10450 10452 10454 10456 10458 10460 10463 10465 10467 10468 10470 10471 10472 10472 10473 10473 10473 10473 10475 10477 10477 10477 10478 10480 10480 10480 10481 10482 10482 10482 10481 10481 10481 10482 10482 10482 10482 10482 10483 10483 10483 10483 10483 10483 10483 10483 10483 10483 10483 10482 10482 10481 10480 10480 10478 10478 10477 10476 10475 10474 10473 10472 10470
10393 10397 10400 10403 10406 10410 10413 10417 10420 10422 10425 10427 10429 10431 10433 10435 10437 10438 10439 10439 10440 10441 10442 10444 10446 10448 10450 10452 10455 10458 10460 10461 10462 10463 10465 10466 10467 10468 10468 10468 10468 10469 10470 10471 10472 10473 10473 10475 10475 10475 10475 10475 10475 10475 10475 10476 10476 10476 10475 10476 10477 10477 10477 10477 10477 10478 10478 10478 10477 10477 10477 10477 10477 10476 10475 10475 10474 10473 10472 10471 10470 10470 10468 10467 10466 10465
10387 10390 10393 10396 10400 10403 10407 10411 10413 10416 10419 10421 10423 10425 10427 10428 10430 10432 10432 10432 10433 10435 10437 10438 10440 10442 10444 10447 10450 10453 10454 10454 10455 10457 10458 10460 10462 10462 10463 10463 10463 10463 10465 10466 10467 10468 10468 10468 10469 10469 10470 10470 10470 10470 10470 10471 10470 10470 10470 10470 10470 10471 10471 10472 10472 10472 10472 10472 10472 10472 10471 10471 10471 10470 10470 10469 10468 10468 10467 10465 10465 10464 10463 10462 10460 10459
10380 10383 10386 10390 10393 10397 10401 10404 10407 10410 10413 10415 10417 10419 10421 10423 10424 10425 10425 10426 10427 10428 10431 10433 10435 10437 10438 10442 10445 10446 10447 10447 10448 10450 10452 10454 10455 10457 10457 10457 10457 10458 10459 10461 10462 10463 10463 10464 10464 10463 10464 10465 10465 10465 10465 10465 10465 10465 10465 10465 10464 10464 10465 10466 10466 10466 10466 10466 10466 10466 10465 10465 10465 10465 10464 10463 10463 10462 10462 10460 10459 10458 10457 10457 10455 10454
10374 10377 10380 10383 10387 10391 10395 10397 10400 10403 10406 10408 10410 10413 10415 10416 10417 10418 10418 10420 10422 10423 10425 10427 10430 10432 10434 10436 10438 10438 10440 10441 10443 10445 10447 10448 10450 10450 10451 10452 10452 10453 10455 10456 10457 10457 10458 10458 10458 10458 10459 10459 10459 10459 10459 10459 10459 10459 10460 10459 10458 10458 10459 10460 10460 10460 10460 10460 10460 10460 10460 10460 10459 10459 10458 10458 10457 10457 10456 10455 10454 10453 10452 10451 10450 10449
10368 10370 10373 10377 10380 10384 10388 10390 10394 10397 10399 10402 10403 10405 10407 10408 10409 10410 10412 10413 10415 10417 10419 10422 10424 10426 10428 10429 10430 10432 10433 10435 10437 10440 10442 10443 10444 10445 10445 10447 10447 10448 10450 10451 10452 10452 10452 10453 10453 10453 10453 10453 10454 10454 10453 10453 10453 10453 10454 10453 10453 10453 10453 10454 10455 10455 10455 10455 10455 10455 10455 10455 10454 10453 10453 10453 10452 10451 10450 10450 10448 10448 10447 10445 10444 10443
10361 10363 10367 10370 10374 10377 10380 10384 10387 10390 10392 10395 10397 10398 10399 10401 10402 10404 10405 10407 10408 10410 10413 10415 10417 10419 10420 10422 10423 10425 10428 10430 10432 10435 10437 10437 10438 10439 10440 10441 10442 10443 10445 10446 10446 10445 10446 10447 10448 10448 10447 10448 10448 10448 10447 10447 10447 10448 10448 10448 10448 10448 10448 10447 10448 10450 10450 10450 10449 10449 10449 10449 10448 10448 10448 10447 10446 10445 10445 10444 10443 10442 10441 10440 10439 10438
10355 10358 10361 10365 10368 10372 10375 10378 10380 10382 10385 10387 10389 10391 10392 10395 10397 10398 10400 10402 10403 10405 10407 10409 10411 10413 10415 10416 10417 10419 10422 10425 10427 10430 10431 10432 10433 10434 10435 10436 10437 10438 10440 10440 10440 10440 10440 10442 10442 10442 10442 10442 10443 10442 10442 10442 10442 10442 10442 10442 10443 10443 10443 10442 10443 10443 10444 10443 10444 10444 10444 10443 10443 10443 10442 10441 10440 10440 10439 10438 10437 10436 10435 10435 10434 10433
10349 10352 10356 10359 10362 10366 10369 10370 10372 10375 10378 10381 10383 10385 10386 10388 10390 10392 10394 10395 10397 10399 10400 10402 10405 10408 10410 10410 10411 10414 10417 10420 10422 10424 10425 10426 10427 10428 10430 10431 10432 10433 10434 10435 10435 10435 10435 10435 10435 10435 10437 10437 10437 10437 10436 10436 10436 10436 10436 10437 10438 10438 10437 10437 10438 10438 10438 10438 10438 10438 10438 10438 10438 10437 10436 10435 10434 10434 10433 10432 10432 10430 10430 10429 10428 10427
10344 10347 10350 10352 10356 10359 10361 10363 10367 10370 10373 10375 10377 10378 10380 10382 10385 10387 10388 10390 10391 10393 10394 10396 10399 10402 10402 10403 10406 10409 10413 10415 10416 10417 10418 10420 10421 10422 10424 10425 10427 10428 10428 10429 10430 10430 10430 10430 10430 10430 10431 10432 10432 10431 10430 10430 10430 10430 10430 10431 10432 10432 10432 10432 10433 10433 10433 10433 10432 10432 10432 10432 10432 10431 10430 10429 10428 10428 10427 10427 10426 10425 10424 10423 10422 10422
10338 10340 10343 10346 10349 10352 10355 10358 10362 10365 10367 10368 10370 10372 10374 10376 10378 10380 10382 10383 10385 10387 10388 10390 10393 10395 10397 10398 10401 10405 10407 10409 10410 10410 10412 10413 10415 10417 10418 10420 10421 10422 10423 10423 10423 10424 10425 10424 10425 10425 10425 10425 10425 10425 10424 10425 10425 10425 10425 10425 10427 10427 10427 10427 10427 10427 10427 10427 10427 10427 10427 10427 10426 10425 10424 10423 10422 10422 10420 10420 10420 10419 10418 10418 10417 10416
10332 10335 10338 10340 10343 10347 10350 10353 10356 10358 10360 10362 10364 10366 10368 10370 10372 10374 10376 10377 10379 10381 10383 10385 10388 10390 10392 10394 10397 10399 10401 10402 10403 10404 10406 10407 10409 10410 10412 10413 10415 10416 10417 10417 10418 10418 10418 10418 10419 10419 10419 10419 10419 10418 10418 10418 10420 10420 10420 10420 10421 10421 10421 10420 10420 10422 10422 10422 10421 10421 10421 10421 10420 10419 10418 10417 10416 10415 10414 10414 10413 10413 10413 10412 10412 10410
10327 10330 10333 10335 10339 10342 10345 10347 10350 10353 10355 10356 10358 10360 10362 10364 10366 10368 10370 10372 10373 10376 10378 10380 10382 10384 10387 10389 10391 10393 10395 10397 10397 10398 10400 10402 10403 10405 10407 10407 10408 10410 10410 10411 10412 10412 10412 10412 10413 10413 10413 10413 10413 10412 10412 10413 10413 10414 10414 10415 10415 10415 10415 10415 10415 10415 10416 10415 10415 10415 10415 10415 10414 10413 10413 10412 10410 10408 10408 10408 10408 10407 10407 10407 10406 10405
10321 10324 10327 10330 10333 10337 10338 10342 10345 10348 10350 10351 10353 10355 10357 10358 10361 10363 10364 10366 10368 10371 10373 10374 10377 10379 10382 10383 10385 10387 10389 10390 10392 10393 10394 10395 10397 10399 10400 10401 10402 10403 10404 10404 10405 10405 10406 10406 10407 10407 10407 10408 10408 10408 10407 10407 10407 10408 10408 10408 10409 10409 10409 10408 10408 10409 10410 10410 10409 10409 10409 10408 10408 10407 10407 10406 10405 10403 10402 10402 10402 10401 10401 10400 10400 10398
10315 10318 10321 10325 10328 10330 10333 10336 10340 10343 10345 10347 10348 10350 10352 10353 10355 10357 10359 10361 10363 10365 10367 10369 10372 10374 10376 10378 10379 10381 10382 10384 10386 10387 10388 10389 10392 10393 10394 10395 10395 10397 10398 10398 10398 10398 10399 10400 10400 10400 10400 10402 10403 10403 10403 10402 10401 10402 10403 10402 10403 10403 10403 10403 10403 10403 10403 10403 10403 10403 10403 10402 10402 10401 10400 10400 10399 10397 10396 10396 10395 10395 10395 10395 10393 10392